Regional Weather Roundup
Issued by NWS

Home | Current Version | Previous Version | Graphics & Text | Print | Product List | Glossary On
Versions: 1 2 3 4 5 6 7 8 9 10 11 12 13 14 15 16 17 18 19 20 21 22 23 24 25 26 27 28 29 30 31 32 33 34 35 36 37 38 39 40 41 42 43 44 45 46 47 48 49 50
000
ASUS43 KMPX 211901
RWRMN
WEATHER ROUNDUP FOR MINNESOTA
NATIONAL WEATHER SERVICE TWIN CITIES/CHANHASSEN MN
200 PM CDT MON MAY 21 2018


NOTE: "FAIR" INDICATES FEW OR NO CLOUDS BELOW 12,000 FEET WITH NO
SIGNIFICANT WEATHER AND/OR OBSTRUCTIONS TO VISIBILITY. N/A MEANS
CURRENT SKY AND/OR WEATHER CONDITIONS ARE NOT AVAILABLE.

MNZ060>063-068>070-212000-
   Twin Cities Metro

CITY           SKY/WX    TMP DP  RH WIND       PRES   REMARKS
TWIN CITIES    PTSUNNY   66  51  58 E7        30.04F
ST PAUL        CLOUDY    65  49  56 E9        30.04F
CRYSTAL        CLOUDY    67  49  52 E9        30.03F
BLAINE         PTSUNNY   70  48  46 E8        30.04F
LAKEVILLE      PTSUNNY   68  52  56 E8        30.03F
EDEN PRAIRIE   CLOUDY    66  50  56 VRB3      30.02F
SOUTH ST PAUL  PTSUNNY   67  47  48 E8        30.03F
LAKE ELMO      CLOUDY    63  45  51 SE8       30.06F
$$
MNZ001>005-007-008-013>017-022>024-027-028-212000-
   Northwest Minnesota

CITY           SKY/WX    TMP DP  RH WIND       PRES   REMARKS
BEMIDJI        FAIR      71  34  25 SE10      30.03F
HALLOCK        FAIR      77  25  14 S15       29.99F
ROSEAU         FAIR      73  36  25 S5        30.02F
WARROAD        FAIR      68  45  42 NE12      30.03F
THIEF RVR FALL FAIR      73  30  20 VRB6G17   30.02F
CROOKSTON      FAIR      73  32  21 S6        30.00F
FOSSTON        FAIR      75  32  20 SE13      30.02F
DETROIT LAKES  FAIR      68  41  37 SE16      30.04F
MOORHEAD       FAIR      72  39  30 E13       30.01S
PARK RAPIDS    CLOUDY    64  35  34 SE15      30.05F
MAHNOMEN       CLOUDY    70  40  34 SE9       30.02F
$$
MNZ006-009>011-018-025>026-212000-
   North Central Minnesota

CITY           SKY/WX    TMP DP  RH WIND       PRES   REMARKS
BAUDETTE       FAIR      73  31  21 SE7       30.03F
FLAG ISLAND    FAIR      64  37  36 SE6       30.02F
INTL FALLS     FAIR      74  39  28 NE10      30.03F
WASKISH        FAIR      72  39  30 NW8       30.03F
BIG FORK       FAIR      73  36  25 S6        30.05S
LONGVILLE      PTSUNNY   70  36  28 S6        30.05F
GRAND RAPIDS   FAIR      72  37  28 S12       30.06F
CRANE LAKE     FAIR      73  28  19 SW3       30.05F
ORR            FAIR      73  19  13 CALM      30.02F
COOK           FAIR      73  32  21 S7        30.05F
WALKER         CLOUDY    68  38  32 S6        30.05S
$$
MNZ012-019>021-037-212000-
   Northeast Minnesota

CITY           SKY/WX    TMP DP  RH WIND       PRES   REMARKS
DULUTH         FAIR      71  35  26 E12       30.07F
ELY            FAIR      73  25  16 W5        30.04F
HIBBING        FAIR      73  33  23 SE14      30.04F
EVELETH        FAIR      73  32  21 CALM      30.06F
DULUTH HARBOR  FAIR      54  45  71 E6        30.08F
TWO HARBORS    FAIR      79  45  29 E12       30.06F
SILVER BAY     FAIR      72  32  23 SE5       30.07F
GRAND MARAIS     N/A     47  35  63 CALM      30.11F
G MARAIS ARPRT FAIR      68  25  19 SE8       30.12F
$$
MNZ029>031-032-039>041-046>048-054>057-064-212000-
   West Central Minnesota

CITY           SKY/WX    TMP DP  RH WIND       PRES   REMARKS
FERGUS FALLS   CLOUDY    66  52  59 SE8       29.98F
WHEATON        CLOUDY    66  54  63 SE15      30.02F
MORRIS         CLOUDY    63  55  77 E10       30.02F
ALEXANDRIA     CLOUDY    57  53  86 E10       30.06F FOG
ELBOW LAKE     CLOUDY    63  54  73 SE12      30.04S
WADENA         CLOUDY    61  32  33 E12       30.06F
GLENWOOD       CLOUDY    55  54  94 E9        30.05F FOG
APPLETON       CLOUDY    63  55  77 SE9       30.02S
BENSON         LGT RAIN  61  55  82 S8        30.04F
ORTONVILLE     PTSUNNY   61  55  82 SE6       30.02S
MADISON        CLOUDY    64  57  77 SE7       30.02F
WILLMAR        PTSUNNY   59  57  94 E12       30.05F
$$
MNZ033>034-036-042>043-049>051-058-059-212000-
   Central Minnesota

CITY           SKY/WX    TMP DP  RH WIND       PRES   REMARKS
ST CLOUD       LGT RAIN  55  51  86 E5        30.06F FOG
SAUK CENTRE    CLOUDY    55  54  97 E8        30.06F FOG
PAYNESVILLE    CLOUDY    57  55  94 E5        30.06S
AITKIN         PTSUNNY   63  34  34 SE7       30.06F
PINE RIVER     CLOUDY    61  37  41 S8        30.10F
BRAINERD       CLOUDY    62  41  46 CALM      30.08F
STAPLES        PTSUNNY   57  36  44 SE7G16    30.08S
LONG PRAIRIE   CLOUDY    52  50  93 NE9       30.07F
LITTLE FALLS   FAIR      61  36  39 E5        30.07F
LITCHFIELD     CLOUDY    59  59 100 E5        30.05F
BUFFALO        PTSUNNY   60  52  73 N6        30.05F
MAPLE LAKE     CLOUDY    60  55  84 CALM      30.05F
HUTCHINSON     CLOUDY    61  57  86 E5        30.05F
$$
MNZ037-044-045-052-053-212000-
   East Central Minnesota

CITY           SKY/WX    TMP DP  RH WIND       PRES   REMARKS
PRINCETON      CLOUDY    63  39  42 NE3       30.06F
MORA           PTSUNNY   64  32  29 E7        30.08F
CAMBRIDGE      CLOUDY    66  43  42 E3        30.06F
RUSH CITY      CLOUDY    66  30  26 E5        30.06F
MOOSE LAKE     CLOUDY    66  36  32 CALM      30.05F
HINCKLEY       CLOUDY    64  34  32 SE3       30.07F
CLOQUET        CLOUDY    66  28  24 SE6       30.07F
MCGREGOR       CLOUDY    64  34  32 SE9       30.07F
$$
MNZ071>073-080-081-089-090-097-098-212000-
   Southwest Minnesota

CITY           SKY/WX    TMP DP  RH WIND       PRES   REMARKS
MONTEVIDEO     CLOUDY    61  59  94 S5        30.03S
GRANITE FALLS  CLOUDY    62  57  84 SE9       30.04S
CANBY          CLOUDY    60  57  87 SE3       30.03F
MARSHALL       CLOUDY    61  56  83 SE5       30.03S
REDWOOD FALLS  CLOUDY    60  57  89 SE8       30.02F
OLIVIA         CLOUDY    59  55  88 SE7       30.02F
PIPESTONE      CLOUDY    61  57  88 S6        30.02S
WINDOM         CLOUDY    61  45  55 SW3       30.02F HAZE
WORTHINGTON      N/A     58  57  97 S6        30.03F
JACKSON        CLOUDY    57  57 100 CALM      30.03F FOG
TRACY          CLOUDY    60  58  92 S3        30.02F
SLAYTON        CLOUDY    58  57  96 SE6       30.04S FOG
$$
MNZ065>067-074>077-082>085-091>093-212000-
   South Central Minnesota

CITY           SKY/WX    TMP DP  RH WIND       PRES   REMARKS
MANKATO        CLOUDY    65  55  70 VRB6      30.03F
NEW ULM        CLOUDY    61  55  82 E3        30.02F
ST JAMES       CLOUDY    63  57  82 CALM      30.03F
FAIRMONT       CLOUDY    62  57  83 CALM      30.03S
GLENCOE        CLOUDY    65  55  69 E6        30.02F
FARIBAULT      CLOUDY    68  54  60 CALM      30.03F
OWATONNA       CLOUDY    63  54  72 E7        30.04S
WASECA         CLOUDY    63  54  72 E5        30.04F
ALBERT LEA     DRIZZLE   57  54  88 SE5       30.04S
$$
MNZ078>079-086>088-094>096-212000-
   Southeast Minnesota

CITY           SKY/WX    TMP DP  RH WIND       PRES   REMARKS
ROCHESTER      CLOUDY    55  53  93 E13       30.06S
RED WING       CLOUDY    61  43  51 SE9       30.04F
STANTON        CLOUDY    65  51  60 SE8       30.02F
DODGE CENTER   CLOUDY    55  54  94 E10       30.04F FOG
WINONA         CLOUDY    54  50  87 E7        30.05F
AUSTIN         RAIN      55  54  94 SE7       30.04S
PRESTON        CLOUDY    54  51  89 E8        30.05F FOG
$$
ABBREVIATIONS USED IN REMARKS
   TC - TEMPERATURES IN CELSIUS
  WCI - WIND CHILL INDEX
   HX - HEAT INDEX
  VSB - VISIBILITY
$$




USA.gov is the U.S. government's official web portal to all federal, state and local government web resources and services.